Wind_Speed
32 33 34 34 35 36 36 37 37 38 38 39 39 40 41 41 41 41 41 41 41 41 42 42 42 43 43 43 43 43 44 44 44 44 44 44 44 44 44 44 44 44 44
34 34 35 36 37 38 39 39 40 41 41 42 43 44 45 45 46 46 46 46 46 46 47 47 47 47 47 47 48 48 48 48 48 48 48 48 48 47 47 47 47 46 46
34 35 35 36 38 39 39 40 41 42 43 44 46 47 48 49 49 50 50 50 50 51 51 52 52 52 52 52 52 52 52 51 51 51 51 51 51 50 50 50 50 49 48
34 35 36 37 38 39 40 41 42 43 44 46 47 49 50 51 51 52 53 53 53 54 54 55 55 56 56 56 56 56 55 55 55 55 54 54 54 53 53 52 52 51 51
35 36 36 37 39 39 40 41 42 44 45 46 48 49 50 51 52 54 54 55 55 56 57 57 58 59 59 59 59 59 59 58 58 58 57 57 56 56 55 55 54 54 53
35 36 36 38 39 39 41 42 43 44 45 47 48 49 50 52 53 54 55 56 57 57 58 59 60 60 61 61 62 62 62 62 61 61 60 59 59 58 58 57 56 55 55
36 36 37 38 39 40 41 43 44 45 46 48 49 50 51 52 53 53 55 56 57 58 59 60 61 62 63 63 64 64 64 64 64 63 63 62 61 61 60 59 58 57 57
34 35 36 37 38 39 41 43 44 45 46 48 49 51 51 51 52 53 55 57 58 59 60 61 62 63 64 65 65 65 66 66 66 65 65 64 64 63 62 62 61 60 59
34 35 36 38 39 40 41 43 45 46 47 49 51 53 54 54 54 54 55 57 59 61 62 64 65 66 66 67 67 68 68 68 68 68 67 67 66 66 65 64 64 62 61
35 36 37 38 40 41 43 45 47 48 50 52 54 55 57 59 60 58 58 58 60 62 64 65 66 67 68 69 69 69 70 70 70 70 70 69 69 68 67 67 66 65 64
37 38 39 41 43 45 46 48 51 53 54 56 58 60 61 64 65 67 65 65 65 65 66 68 69 70 71 72 72 72 73 73 74 73 73 72 71 71 70 69 68 67 66
39 41 43 44 46 48 51 53 55 57 60 62 64 66 68 69 70 72 73 72 72 72 72 72 72 73 74 75 75 76 76 77 77 76 76 75 74 74 73 72 71 70 69
42 44 46 48 51 54 56 58 61 63 65 67 69 71 73 75 76 78 79 79 80 79 79 79 78 78 78 78 78 79 79 80 79 79 78 78 77 77 76 75 73 72 71
47 49 51 54 56 59 61 64 66 68 70 73 74 76 78 80 81 83 84 85 86 85 85 84 84 84 82 82 83 83 83 82 82 81 81 80 79 79 78 77 76 74 73
51 54 56 59 62 64 67 69 71 73 76 77 79 81 83 84 85 87 88 89 91 91 89 88 89 89 88 87 86 87 86 85 85 84 83 82 81 80 79 78 77 76 75
56 59 62 64 66 69 72 74 76 78 80 81 83 84 85 87 88 89 91 92 93 95 94 90 92 93 93 92 90 90 89 88 86 85 83 82 80 79 79 78 77 76 76
61 64 66 69 71 74 77 79 80 82 83 84 86 87 88 89 90 90 91 92 93 93 94 90 91 92 93 92 91 89 87 86 85 83 81 80 78 77 76 76 75 75 75
66 68 71 73 76 78 80 82 83 85 86 87 88 88 88 89 89 88 88 88 87 87 87 85 82 83 84 85 84 83 82 81 80 79 77 76 76 75 74 74 74 73 73
70 73 76 78 80 82 83 85 86 87 88 88 87 87 86 85 83 81 80 79 77 76 76 75 72 71 73 73 75 75 74 74 74 74 73 73 73 72 71 71 71 71 71
75 77 79 81 83 84 86 87 88 87 87 86 85 83 81 78 75 73 71 69 68 67 67 66 64 63 64 65 66 66 67 67 68 68 69 69 69 69 69 70 69 69 69
78 80 82 83 85 86 87 87 86 85 83 81 78 75 72 69 66 64 63 61 61 62 61 61 59 57 57 58 58 59 60 61 62 63 63 64 64 65 66 67 67 67 67
81 82 84 85 86 86 85 84 83 81 78 74 70 66 62 60 58 57 57 57 57 56 56 55 54 52 51 52 53 53 55 56 56 57 58 58 59 60 60 61 62 63 64
82 83 85 85 84 83 81 79 77 74 70 66 61 57 55 53 52 52 52 53 52 52 52 51 49 47 46 47 48 49 50 50 51 53 54 55 56 56 57 57 58 59 61
83 84 84 83 81 78 76 73 70 66 62 57 54 52 49 48 48 48 48 48 47 47 47 47 46 44 43 43 44 45 47 48 48 49 51 51 52 54 54 55 56 58 59
83 83 81 79 76 73 70 67 63 59 54 51 48 46 45 44 44 45 45 43 42 42 43 42 42 41 40 41 42 42 43 45 45 46 47 48 49 51 52 52 54 55 56
82 80 77 75 71 67 64 61 58 53 50 47 45 44 43 42 42 43 42 41 40 39 38 38 38 38 38 38 39 39 40 41 42 43 43 45 47 49 49 50 51 52 53
Wind_Direction
272 272 271 271 270 270 269 269 269 269 269 269 270 270 271 271 271 272 272 273 273 274 274 275 275 276 276 277 277 278 279 279 280 280 280 280 280 281 281 281 280 279 277
274 274 274 273 272 272 271 271 271 271 271 271 271 271 271 272 272 273 273 273 274 274 275 275 275 275 276 276 277 277 278 278 278 279 279 280 280 281 281 281 281 280 279
276 276 276 275 274 274 274 274 273 273 273 272 272 272 272 272 273 273 273 273 273 273 274 274 274 274 274 275 275 276 276 276 277 278 278 279 279 280 280 281 281 281 280
279 279 278 277 276 276 276 275 274 274 273 273 272 272 272 272 272 272 272 272 272 272 272 272 273 273 273 274 274 274 274 275 275 276 277 277 278 279 279 280 280 280 279
282 281 280 279 279 278 278 277 276 275 275 274 273 273 273 273 273 272 273 272 272 272 272 271 271 272 272 272 273 273 273 274 274 274 275 276 276 277 278 279 279 279 278
283 283 282 281 281 280 279 279 278 277 276 276 275 275 274 274 274 274 274 273 272 272 271 271 271 271 271 271 271 272 272 272 273 273 274 274 275 276 277 277 278 278 277
284 284 283 283 283 282 282 282 281 280 280 279 278 277 276 276 276 275 275 274 274 273 273 272 272 272 271 271 271 271 272 272 272 273 273 273 274 274 275 275 276 276 276
286 285 285 285 285 284 284 283 282 282 281 281 280 279 278 277 276 276 275 275 275 274 274 273 273 272 272 271 271 271 271 271 271 272 272 272 272 273 273 274 274 274 274
287 287 287 287 287 286 286 285 285 284 284 283 283 283 282 280 278 276 276 276 276 275 274 274 273 273 272 272 271 271 271 271 271 271 271 271 271 271 272 272 273 273 273
288 288 288 289 289 289 288 287 287 287 287 286 285 285 284 284 283 280 278 276 275 275 275 274 274 273 273 272 272 271 271 271 270 270 270 270 270 270 270 271 271 271 271
290 291 291 291 291 291 290 290 289 289 288 288 287 286 285 285 285 284 282 280 278 276 274 273 273 273 273 272 272 271 270 269 269 269 269 268 268 269 269 269 269 269 269
292 293 293 293 292 292 292 291 291 290 290 289 288 287 286 285 284 284 283 282 280 278 277 275 274 273 272 271 270 270 269 268 268 268 268 267 267 267 267 268 268 268 268
293 293 293 293 293 293 293 292 292 291 290 289 289 288 287 286 285 284 283 282 280 279 278 277 276 274 272 271 270 269 268 267 267 266 266 266 266 266 266 266 266 266 266
294 294 294 294 294 294 294 293 293 292 291 291 290 289 288 287 285 284 283 282 281 279 278 277 276 274 273 271 270 269 267 267 266 265 265 264 264 264 264 264 264 264 265
295 295 296 296 296 295 295 294 294 293 292 291 291 289 288 287 286 284 283 282 281 279 277 276 275 274 272 271 270 269 268 267 266 265 264 264 263 263 263 263 262 263 263
297 297 297 297 297 297 296 296 295 294 294 293 291 290 289 288 286 285 283 282 280 279 277 276 274 273 271 270 269 268 268 267 266 265 264 264 263 262 262 261 261 261 261
298 299 299 299 299 298 298 297 297 296 295 294 293 292 290 289 287 286 284 283 281 280 278 276 274 273 271 270 268 268 267 266 265 264 263 262 261 261 260 260 260 260 260
300 300 301 301 300 300 299 299 298 297 296 295 294 293 292 290 289 288 286 284 283 281 280 278 276 274 272 270 269 267 266 265 264 263 262 261 260 259 259 258 258 258 258
302 303 303 303 302 302 301 300 299 299 298 297 296 294 293 292 290 289 287 285 284 283 282 281 278 275 273 271 269 267 266 265 264 262 261 260 259 258 257 257 257 257 257
304 305 304 304 304 303 303 302 301 300 299 298 297 296 295 293 291 289 288 286 285 284 283 282 281 277 274 272 270 268 266 264 263 262 261 260 259 257 256 256 256 256 256
306 306 306 305 305 305 304 303 302 301 300 299 298 296 295 293 291 289 288 287 285 285 284 283 282 279 276 273 271 268 266 264 263 262 261 260 259 258 257 256 256 255 255
307 307 307 307 306 306 305 304 303 302 301 300 298 296 294 292 291 289 288 288 287 286 285 284 283 281 278 274 271 269 267 265 263 262 261 259 259 258 257 256 255 255 255
308 308 308 308 307 307 305 305 304 303 302 301 299 296 294 293 291 290 289 288 288 287 286 285 283 281 278 274 272 270 268 266 264 262 261 261 260 259 258 256 255 255 255
309 309 309 309 308 307 306 305 304 303 302 300 298 297 295 293 292 291 291 290 289 287 286 284 283 281 279 276 273 271 269 267 265 264 263 261 260 259 258 257 257 256 255
310 310 310 309 308 308 307 306 304 303 301 300 298 297 296 295 294 293 293 291 290 288 286 285 283 281 280 278 275 272 270 269 267 265 263 262 260 259 259 258 258 257 256
311 311 310 310 309 308 307 306 304 303 301 300 298 298 296 295 295 295 294 292 291 289 287 285 284 283 282 280 277 275 272 270 269 266 264 263 262 261 260 259 258 257 257
Height
5831 5831 5830 5829 5829 5828 5827 5827 5827 5826 5825 5825 5824 5823 5823 5822 5822 5822 5821 5821 5820 5819 5818 5817 5816 5815 5814 5813 5812 5811 5810 5809 5808 5807 5807 5806 5805 5804 5803 5802 5801 5801 5800
5825 5824 5823 5822 5821 5820 5820 5819 5818 5818 5817 5816 5815 5814 5813 5813 5812 5812 5811 5811 5810 5809 5808 5807 5806 5805 5804 5803 5802 5801 5800 5798 5797 5796 5795 5795 5794 5793 5792 5791 5790 5790 5789
5818 5817 5816 5814 5813 5812 5811 5810 5809 5808 5808 5806 5805 5804 5803 5802 5802 5801 5800 5800 5799 5798 5796 5795 5794 5792 5791 5790 5789 5788 5787 5786 5785 5784 5784 5783 5782 5781 5780 5779 5778 5778 5777
5810 5809 5808 5806 5805 5803 5802 5801 5800 5798 5797 5796 5794 5793 5792 5791 5790 5789 5788 5787 5786 5785 5783 5782 5780 5779 5778 5777 5776 5775 5774 5773 5772 5771 5771 5770 5769 5768 5767 5767 5766 5765 5765
5803 5801 5800 5798 5796 5794 5793 5791 5789 5788 5786 5784 5782 5781 5780 5778 5777 5776 5775 5773 5772 5770 5769 5767 5766 5764 5763 5762 5761 5760 5759 5759 5758 5757 5757 5756 5755 5755 5754 5754 5753 5752 5752
5795 5793 5791 5789 5787 5785 5783 5781 5779 5777 5775 5773 5770 5769 5768 5766 5764 5763 5761 5759 5757 5755 5754 5752 5750 5749 5748 5747 5746 5745 5744 5743 5743 5742 5742 5741 5741 5741 5740 5740 5739 5739 5738
5786 5784 5782 5780 5778 5776 5773 5771 5768 5766 5764 5761 5758 5757 5756 5753 5752 5750 5747 5744 5743 5740 5738 5737 5735 5733 5732 5731 5730 5729 5728 5727 5726 5726 5726 5726 5726 5725 5725 5725 5725 5724 5724
5778 5775 5773 5771 5768 5766 5763 5760 5757 5754 5752 5749 5746 5743 5742 5742 5739 5737 5733 5730 5728 5725 5723 5721 5719 5717 5715 5714 5713 5712 5711 5710 5710 5709 5709 5709 5709 5709 5709 5709 5709 5709 5709
5769 5767 5764 5761 5758 5756 5753 5749 5746 5743 5740 5737 5733 5730 5727 5726 5725 5724 5721 5717 5713 5710 5707 5704 5702 5700 5698 5697 5696 5695 5693 5693 5692 5692 5691 5691 5692 5692 5692 5692 5692 5693 5693
5760 5758 5755 5752 5748 5745 5742 5738 5735 5731 5728 5724 5720 5716 5712 5708 5705 5706 5706 5703 5699 5694 5691 5687 5684 5682 5680 5678 5678 5677 5675 5674 5673 5673 5673 5673 5673 5673 5674 5674 5675 5675 5676
5751 5748 5745 5742 5738 5735 5731 5727 5723 5718 5714 5710 5706 5701 5697 5692 5687 5684 5685 5684 5681 5678 5675 5670 5667 5664 5661 5659 5658 5657 5655 5653 5653 5653 5653 5653 5654 5654 5655 5656 5656 5657 5658
5742 5738 5735 5731 5727 5723 5719 5714 5710 5705 5700 5695 5690 5685 5680 5675 5671 5665 5662 5661 5659 5657 5653 5651 5648 5645 5641 5638 5637 5635 5633 5632 5631 5631 5632 5632 5633 5634 5635 5636 5637 5638 5639
5732 5728 5724 5720 5715 5710 5705 5700 5695 5690 5684 5678 5673 5667 5661 5656 5650 5644 5640 5637 5635 5634 5631 5628 5626 5623 5619 5616 5614 5611 5610 5609 5609 5609 5610 5611 5612 5613 5614 5615 5617 5618 5619
5721 5716 5712 5707 5701 5696 5690 5684 5679 5673 5666 5660 5653 5647 5640 5634 5627 5621 5616 5611 5609 5609 5607 5605 5600 5597 5594 5591 5588 5585 5585 5585 5585 5585 5586 5588 5589 5590 5592 5593 5595 5597 5599
5709 5704 5698 5692 5686 5680 5673 5667 5661 5654 5647 5639 5632 5625 5617 5611 5603 5596 5590 5584 5579 5578 5582 5581 5573 5569 5567 5564 5562 5558 5557 5558 5558 5560 5561 5563 5565 5567 5569 5571 5573 5576 5578
5695 5689 5683 5677 5670 5663 5655 5648 5640 5633 5624 5617 5609 5601 5593 5585 5577 5570 5563 5557 5550 5545 5548 5556 5546 5540 5536 5536 5534 5531 5530 5530 5532 5533 5535 5538 5541 5543 5546 5548 5551 5553 5556
5680 5673 5666 5659 5651 5643 5635 5626 5618 5610 5601 5593 5583 5575 5567 5558 5549 5542 5534 5527 5521 5514 5511 5522 5517 5510 5506 5505 5505 5503 5502 5503 5505 5507 5509 5512 5515 5518 5521 5525 5528 5531 5534
5663 5656 5648 5640 5631 5622 5613 5604 5595 5586 5576 5567 5558 5548 5540 5530 5522 5513 5505 5498 5492 5486 5480 5484 5489 5482 5477 5476 5476 5475 5475 5476 5478 5481 5483 5486 5490 5494 5498 5501 5505 5508 5511
5645 5637 5628 5619 5610 5600 5590 5580 5570 5561 5551 5541 5531 5521 5512 5503 5495 5486 5478 5472 5466 5461 5455 5454 5459 5457 5452 5450 5449 5451 5451 5451 5453 5456 5458 5461 5466 5470 5474 5479 5482 5486 5490
5627 5618 5608 5598 5588 5577 5566 5555 5545 5535 5525 5515 5504 5495 5486 5477 5470 5462 5456 5450 5445 5440 5436 5433 5434 5434 5431 5428 5426 5428 5428 5429 5431 5433 5436 5439 5443 5447 5452 5457 5461 5465 5468
5607 5597 5587 5576 5565 5554 5542 5530 5520 5510 5500 5491 5481 5471 5463 5455 5448 5442 5436 5432 5427 5422 5418 5415 5414 5413 5412 5409 5408 5407 5408 5409 5411 5413 5416 5419 5422 5427 5430 5435 5439 5442 5446
5587 5576 5565 5554 5542 5530 5518 5506 5494 5486 5477 5468 5460 5451 5444 5437 5431 5425 5419 5415 5410 5405 5402 5398 5396 5395 5395 5392 5390 5390 5390 5391 5394 5397 5397 5400 5403 5407 5411 5415 5419 5422 5425
5567 5555 5543 5531 5520 5508 5495 5483 5472 5463 5455 5447 5439 5433 5427 5421 5415 5410 5405 5400 5395 5391 5387 5383 5381 5380 5378 5377 5375 5375 5375 5375 5377 5378 5380 5384 5386 5389 5392 5395 5399 5402 5406
5546 5534 5522 5510 5498 5487 5474 5463 5453 5444 5437 5430 5423 5417 5411 5406 5401 5395 5391 5386 5382 5378 5373 5369 5367 5366 5364 5363 5361 5360 5360 5360 5362 5363 5365 5368 5369 5371 5374 5377 5380 5383 5387
5526 5513 5501 5489 5478 5467 5455 5445 5435 5428 5422 5415 5409 5403 5398 5393 5388 5382 5377 5373 5370 5366 5361 5357 5355 5353 5351 5349 5348 5347 5346 5346 5347 5349 5349 5351 5353 5355 5357 5360 5363 5365 5368
5505 5493 5482 5470 5458 5449 5439 5429 5419 5412 5407 5402 5397 5391 5385 5380 5375 5370 5365 5361 5357 5354 5350 5347 5344 5342 5339 5337 5336 5334 5334 5333 5334 5335 5336 5337 5338 5339 5342 5344 5346 5348 5350